Volver al catálogo

STARLINK-37050

ActivoComunicacionesSSO
NORAD 68228·PAYLOAD·🇺🇸 United States

Lanzado Mar 17, 2026 desde Vandenberg Space Force Base

Loading…

Próximos Pases (próximas 24 horas)

TLE

ActualizadoSource: CelesTrak SupGP

Época: Sep 15, 2026, 03:35 UTC

1 68228C 26053X   26258.14979167  .00023224  00000+0  71995-3 0  2583
2 68228  97.2850 132.0577 0001820  98.2476  23.7461 15.33469545    10

Sigue STARLINK-37050 en tiempo real con AllMySat

Download on the App Store